McGrath, AK

6:54 PM AKDT on October 17, 2017 (GMT -0800)
McGrath

Weather History for PAMC - November, 2013

Change the Weather History Date:

Sunday, November 3, 2013

  Actual Average Record
Temperature  
Mean Temperature 28 °F 12 °F  
Max Temperature 32 °F 19 °F 46 °F (1954)
Min Temperature 24 °F 5 °F -26 °F (1975)
Degree Days  
Heating Degree Days 37 53  
Month to date heating degree days 128 158  
Since 1 July heating degree days 2029 2498  
Cooling Degree Days 0 0  
Month to date cooling degree days 0 0  
Year to date cooling degree days 78 20  
Moisture  
Dew Point 26 °F    
Average Humidity 0    
Maximum Humidity 0    
Minimum Humidity 0    
Precipitation  
Precipitation 0.22 in 0.04 in 0.43 in (2011)
Month to date precipitation 0.22 0.13  
Year to date precipitation 18.24 15.43  
Snow  
Snow 0.80 in 0.60 in 7.80 in (2004)
Month to date snowfall 0.8 1.8  
Since 1 July snowfall 2.3 13.5  
Since 1 September snowfall 2.3 13.5  
Snow Depth 2.00 in    
Sea Level Pressure  
Sea Level Pressure 29.59 in    
Wind  
Wind Speed 2 mph (ESE)    
Max Wind Speed 10 mph    
Max Gust Speed 13 mph    
Visibility 8 miles    
Events Rain , Snow    
T = Trace of Precipitation, MM = Missing Value Source: NWS Daily Summary

Daily Weather History Graph

Daily Weather History Graph

Search for Another Location

Airport or City:

Trip Planner

Search our weather history database for the weather conditions in past years. The results will help you decide how hot, cold, wet, or windy it might be!

Date:

Astronomy

Nov. 03, 2013 Rise Set
Actual Time 9:06 AM AKST 5:04 PM AKST
Civil Twilight 8:14 AM AKST 5:55 PM AKST
Nautical Twilight 7:19 AM AKST 6:51 PM AKST
Astronomical Twilight 6:26 AM AKST 7:43 PM AKST
Moon 9:33 AM AKST (11/3) 5:12 PM AKST (11/3)
Length of Visible Light 9h 41m
Length of Day
7h 58m
New Moon, 0% of the Moon is Illuminated
Nov 3
New Moon
Nov 9
First Quarter
Nov 17
Full
Nov 25
Last Quarter
Dec 2
New

Hourly Weather History & Observations

Time (AKST) Temp. Windchill Dew Point Humidity Pressure Visibility Wind Dir Wind Speed Gust Speed Precip Events Conditions
12:53 AM 24.1 °F 19.7 °F 19.9 °F 84% 29.71 in 10.0 mi WSW 3.5 mph - N/A   Overcast
1:53 AM 24.1 °F - 19.9 °F 84% 29.71 in 9.0 mi Calm Calm - 0.00 in Snow Light Snow
1:53 AM 25.0 °F - 21.0 °F 85% 29.71 in 10.0 mi Calm Calm - 0.00 in   Overcast
2:53 AM 26.1 °F - 21.0 °F 81% 29.69 in 10.0 mi Calm Calm - 0.00 in   Overcast
3:53 AM 26.1 °F - 21.9 °F 84% 29.66 in 8.0 mi Calm Calm - 0.00 in Snow Light Snow
4:53 AM 26.1 °F - 23.0 °F 88% 29.65 in 10.0 mi Calm Calm - 0.01 in   Overcast
5:26 AM 26.6 °F - 24.8 °F 93% 29.61 in 1.8 mi Calm Calm - 0.00 in Snow Light Snow
5:45 AM 26.6 °F - 24.8 °F 93% 29.60 in 2.5 mi Calm Calm - 0.01 in Snow Light Snow
5:53 AM 27.0 °F - 24.1 °F 89% 29.62 in 4.0 mi Calm Calm - 0.01 in Snow Light Snow
6:05 AM 26.6 °F - 23.0 °F 86% 29.60 in 3.0 mi Calm Calm - 0.00 in Snow Light Snow
6:15 AM 26.6 °F - 23.0 °F 86% 29.60 in 2.5 mi Calm Calm - 0.01 in Snow Light Snow
6:27 AM 26.6 °F - 24.8 °F 93% 29.60 in 1.8 mi Calm Calm - 0.01 in Snow Light Snow
6:53 AM 27.0 °F - 24.1 °F 89% 29.62 in 2.0 mi Calm Calm - 0.02 in Snow Light Snow
7:16 AM 26.6 °F - 24.8 °F 93% 29.59 in 3.0 mi Calm Calm - 0.02 in Snow Light Snow
7:25 AM 26.6 °F - 24.8 °F 93% 29.59 in 4.0 mi Calm Calm - 0.02 in Snow Light Snow
7:37 AM 26.6 °F - 24.8 °F 93% 29.59 in 2.5 mi Calm Calm - 0.02 in Snow Light Snow
7:53 AM 27.0 °F - 25.0 °F 92% 29.61 in 2.0 mi Calm Calm - 0.03 in Snow Light Snow
8:06 AM 26.6 °F - 24.8 °F 93% 29.58 in 4.0 mi Calm Calm - 0.01 in Snow Light Snow
8:53 AM 28.0 °F - 25.0 °F 88% 29.60 in 10.0 mi Calm Calm - 0.02 in   Overcast
9:21 AM 28.4 °F 23.3 °F 26.6 °F 93% 29.57 in 10.0 mi ESE 4.6 mph - 0.01 in   Overcast
9:37 AM 28.4 °F 23.3 °F 26.6 °F 93% 29.57 in 10.0 mi ESE 4.6 mph - 0.01 in Rain Light Freezing Rain
9:53 AM 30.0 °F 25.2 °F 26.1 °F 85% 29.60 in 9.0 mi ESE 4.6 mph - 0.01 in Rain Light Freezing Rain
10:04 AM 30.2 °F 25.4 °F 26.6 °F 86% 29.57 in 10.0 mi ESE 4.6 mph - 0.00 in Rain Light Freezing Rain
10:22 AM 30.2 °F 24.3 °F 26.6 °F 86% 29.57 in 10.0 mi ESE 5.8 mph - 0.01 in Snow Light Freezing Drizzle
10:53 AM 30.0 °F 22.4 °F 27.0 °F 88% 29.59 in 10.0 mi ESE 8.1 mph - 0.02 in Snow Light Freezing Drizzle
11:53 AM 30.9 °F 26.2 °F 28.0 °F 89% 29.59 in 10.0 mi SE 4.6 mph - 0.02 in   Light Freezing Drizzle
12:53 PM 30.9 °F 26.2 °F 28.0 °F 89% 29.57 in 10.0 mi ESE 4.6 mph - 0.01 in   Light Freezing Drizzle
1:53 PM 32.0 °F - 28.9 °F 88% 29.57 in 10.0 mi Calm Calm - 0.02 in   Light Freezing Drizzle
2:53 PM 32.0 °F 26.4 °F 28.9 °F 88% 29.55 in 10.0 mi ESE 5.8 mph - N/A   Light Freezing Drizzle
3:53 PM 32.0 °F 28.7 °F 28.9 °F 88% 29.54 in 7.0 mi East 3.5 mph - 0.02 in Rain Light Rain
4:53 PM 32.0 °F - 30.0 °F 92% 29.53 in 10.0 mi Calm Calm - 0.02 in Rain Light Rain
5:53 PM 32.0 °F 27.5 °F 30.0 °F 92% 29.52 in 10.0 mi SSE 4.6 mph - 0.00 in Rain Light Rain
6:53 PM 32.0 °F - 28.9 °F 88% 29.52 in 10.0 mi Calm Calm - 0.00 in Rain Light Rain
7:53 PM 32.0 °F - 28.9 °F 88% 29.52 in 10.0 mi Calm Calm - 0.00 in Rain Light Rain
8:02 PM 32.0 °F - 28.4 °F 87% 29.49 in 10.0 mi Calm Calm - 0.00 in Rain Light Rain
8:53 PM 32.0 °F - 28.9 °F 88% 29.51 in 10.0 mi Calm Calm - 0.00 in Rain Light Rain
9:53 PM 32.0 °F - 28.9 °F 88% 29.51 in 10.0 mi Calm Calm - 0.00 in Rain Light Rain
10:53 PM 32.0 °F - 30.0 °F 92% 29.51 in 10.0 mi Calm Calm - 0.00 in Rain Light Rain